GW1213 Weather Reports


Display with metric or nautical units.
time (UTC)temp
F
wind
direction
speed
MPH
gust
MPH
rain 1hr
in
rain 24hr
in
rain mn
in
humidity
%
barometer
mb
20260504045537 46 0 0.0 0.0 0.00 0.00 0.00 83 1015.3
20260504045038 46 0 0.0 0.0 0.00 0.00 0.00 83 1015.3
20260504044552 46 0 0.0 0.0 0.00 0.00 0.00 83 1015.2
20260504044038 46 0 0.0 0.0 0.00 0.00 0.00 83 1015.2
20260504043538 46 0 0.0 0.0 0.00 0.00 0.00 83 1015.2
20260504043047 46 0 0.0 0.0 0.00 0.00 0.00 83 1015.2
20260504042538 45 0 0.0 0.0 0.00 0.00 0.00 83 1015.1
20260504042040 45 0 0.0 0.0 0.00 0.00 0.00 84 1015.1
20260504041546 45 0 0.0 0.0 0.00 0.00 0.00 84 1015.2
20260504041038 45 0 0.0 0.0 0.00 0.00 0.00 85 1015.2
20260504040538 45 0 0.0 0.0 0.00 0.00 0.00 84 1015.2
20260504040104 45 0 0.0 0.0 0.00 0.00 0.00 84 1015.3
20260504035540 45 0 0.0 0.0 0.00 0.00 0.00 84 1015.2
20260504035040 45 0 0.0 0.0 0.00 0.00 0.00 85 1015.3
20260504034557 45 0 0.0 0.0 0.00 0.00 0.00 84 1015.3
20260504034037 45 0 0.0 0.0 0.00 0.00 0.00 84 1015.3
20260504033538 45 0 0.0 0.0 0.00 0.00 0.00 84 1015.2
20260504033119 45 0 0.0 0.0 0.00 0.00 0.00 84 1015.2
20260504032537 45 0 0.0 0.0 0.00 0.00 0.00 84 1015.2
20260504032038 45 0 0.0 0.0 0.00 0.00 0.00 83 1015.2
20260504031546 45 0 0.0 0.0 0.00 0.00 0.00 83 1015.3
20260504031038 45 0 0.0 0.0 0.00 0.00 0.00 82 1015.3
20260504030537 46 0 0.0 0.0 0.00 0.00 0.00 82 1015.2
20260504030056 46 0 0.0 0.0 0.00 0.00 0.00 81 1015.2
20260504025538 46 0 0.0 0.0 0.00 0.00 0.00 80 1015.2
20260504025038 46 0 0.0 0.0 0.00 0.00 0.00 80 1015.2
20260504024552 46 0 0.0 0.0 0.00 0.00 0.00 79 1015.1
20260504024037 47 0 0.0 0.0 0.00 0.00 0.00 79 1015.2
20260504023538 47 0 0.0 0.0 0.00 0.00 0.00 78 1015.2
20260504023100 47 0 0.0 0.0 0.00 0.00 0.00 78 1015.2
20260504022539 47 0 0.0 0.0 0.00 0.00 0.00 78 1015.2
20260504022037 48 0 0.0 0.0 0.00 0.00 0.00 78 1015.2
20260504021553 48 0 0.0 0.0 0.00 0.00 0.00 77 1015.2
20260504021037 48 0 0.0 0.0 0.00 0.00 0.00 76 1015.1
20260504020537 48 0 0.0 0.0 0.00 0.00 0.00 75 1015.1
20260504020056 49 0 0.0 0.0 0.00 0.00 0.00 74 1015.0
20260504015537 49 0 0.0 0.0 0.00 0.00 0.00 74 1015.0
20260504015039 49 0 0.0 0.0 0.00 0.00 0.00 74 1015.0
20260504014550 49 0 0.0 0.0 0.00 0.00 0.00 73 1015.0
20260504014037 50 0 0.0 0.0 0.00 0.00 0.00 71 1015.0
20260504013538 50 0 0.0 0.0 0.00 0.00 0.00 71 1014.9
20260504013100 50 0 0.0 0.0 0.00 0.00 0.00 69 1014.9
20260504012539 50 0 0.0 0.0 0.00 0.00 0.00 67 1014.7
20260504012038 51 0 0.0 0.0 0.00 0.00 0.00 66 1014.7
20260504011551 51 0 0.0 0.0 0.00 0.00 0.00 65 1014.6
20260504011037 51 0 0.0 0.0 0.00 0.00 0.00 65 1014.6
20260504010538 52 0 0.0 0.0 0.00 0.00 0.00 63 1014.6
20260504010054 52 0 0.0 0.0 0.00 0.00 0.00 61 1014.4
20260504005538 53 0 0.0 0.0 0.00 0.00 0.00 61 1014.4
20260504005038 53 0 0.0 0.0 0.00 0.00 0.00 60 1014.4
20260504004600 54 0 0.0 0.0 0.00 0.00 0.00 60 1014.3
20260504004038 54 0 0.0 0.0 0.00 0.00 0.00 58 1014.3
20260504003537 55 0 0.0 0.0 0.00 0.00 0.00 58 1014.2
20260504003051 55 0 0.0 0.0 0.00 0.00 0.00 57 1014.2
20260504002537 56 0 0.0 0.0 0.00 0.00 0.00 54 1014.1
20260504002038 56 0 0.0 0.0 0.00 0.00 0.00 54 1014.2
20260504001558 57 0 0.0 0.0 0.00 0.00 0.00 55 1014.1
20260504001037 58 0 0.0 0.0 0.00 0.00 0.00 53 1014.1
20260504000538 58 0 0.0 0.0 0.00 0.00 0.00 47 1014.1
20260504000055 59 0 0.0 0.0 0.00 0.00 0.00 51 1014.0
20260503235538 59 0 0.0 0.0 0.00 0.00 0.00 47 1013.9
20260503235036 60 0 0.0 0.0 0.00 0.00 0.00 44 1013.9
20260503234551 60 0 0.0 0.0 0.00 0.00 0.00 42 1013.8
20260503234036 61 0 0.0 0.0 0.00 0.00 0.00 36 1013.8
20260503233541 61 0 0.0 0.0 0.00 0.00 0.00 34 1013.7
20260503233054 62 0 0.0 0.0 0.00 0.00 0.00 34 1013.8
20260503232541 62 0 0.0 0.0 0.00 0.00 0.00 34 1013.7
20260503232036 62 0 0.0 0.0 0.00 0.00 0.00 33 1013.7
20260503231548 62 0 0.0 1.0 0.00 0.00 0.00 31 1013.6
20260503231038 62 0 0.0 1.0 0.00 0.00 0.00 30 1013.6
20260503230538 62 0 0.0 2.0 0.00 0.00 0.00 31 1013.6
20260503230059 62 0 0.0 2.0 0.00 0.00 0.00 30 1013.6
20260503225537 63 0 0.0 2.0 0.00 0.00 0.00 31 1013.7
20260503225038 63 260 0.0 4.0 0.00 0.00 0.00 30 1013.7
20260503224546 63 0 0.0 4.0 0.00 0.00 0.00 30 1013.8
20260503224038 63 0 0.0 3.0 0.00 0.00 0.00 30 1013.7
20260503223537 63 198 0.0 8.0 0.00 0.00 0.00 30 1013.9
20260503223049 63 276 3.0 8.0 0.00 0.00 0.00 28 1014.0
20260503222536 63 231 1.0 7.0 0.00 0.00 0.00 30 1014.0
20260503222038 63 0 0.0 2.0 0.00 0.00 0.00 30 1013.9
20260503221554 63 0 0.0 3.0 0.00 0.00 0.00 30 1013.9
20260503221038 63 270 0.0 3.0 0.00 0.00 0.00 29 1014.0
20260503220537 63 267 0.0 6.0 0.00 0.00 0.00 30 1014.0
20260503220051 63 0 2.0 6.0 0.00 0.00 0.00 30 1014.0
20260503215536 63 266 1.0 7.0 0.00 0.00 0.00 29 1014.0
20260503215037 63 0 0.0 7.0 0.00 0.00 0.00 31 1014.0
20260503214547 63 267 0.0 8.0 0.00 0.00 0.00 29 1014.0
20260503214040 63 258 2.0 8.0 0.00 0.00 0.00 29 1014.1
20260503213539 63 279 1.0 8.0 0.00 0.00 0.00 29 1014.1
20260503213100 64 138 2.0 7.0 0.00 0.00 0.00 29 1014.0
20260503212538 64 219 0.0 7.0 0.00 0.00 0.00 30 1014.2
20260503212038 64 259 2.0 7.0 0.00 0.00 0.00 29 1014.1
20260503211546 64 292 0.0 4.0 0.00 0.00 0.00 32 1014.1
20260503211037 65 0 0.0 2.0 0.00 0.00 0.00 30 1014.1
20260503210540 65 0 0.0 4.0 0.00 0.00 0.00 28 1014.1
20260503210055 65 281 1.0 4.0 0.00 0.00 0.00 28 1014.1
20260503205537 65 15 1.0 4.0 0.00 0.00 0.00 31 1014.1
20260503205038 65 15 1.0 6.0 0.00 0.00 0.00 31 1014.1
20260503204553 65 0 1.0 6.0 0.00 0.00 0.00 29 1014.1
20260503204037 65 244 1.0 4.0 0.00 0.00 0.00 28 1014.2
20260503203537 65 352 0.0 7.0 0.00 0.00 0.00 31 1014.2
20260503203050 65 0 2.0 7.0 0.00 0.00 0.00 28 1014.3
20260503202538 65 167 0.0 7.0 0.00 0.00 0.00 28 1014.3
20260503202037 65 178 3.0 7.0 0.00 0.00 0.00 27 1014.4
20260503201548 65 217 1.0 7.0 0.00 0.00 0.00 28 1014.4
20260503201039 65 270 1.0 7.0 0.00 0.00 0.00 28 1014.5
20260503200537 65 0 0.0 5.0 0.00 0.00 0.00 27 1014.6
20260503200100 65 0 1.0 5.0 0.00 0.00 0.00 32 1014.7
20260503195538 65 0 2.0 6.0 0.00 0.00 0.00 28 1014.8
20260503195038 64 269 1.0 6.0 0.00 0.00 0.00 30 1014.9
20260503194551 64 264 1.0 4.0 0.00 0.00 0.00 32 1015.1
20260503194037 64 0 0.0 4.0 0.00 0.00 0.00 33 1015.1
20260503193539 63 79 0.0 7.0 0.00 0.00 0.00 31 1015.1
20260503193052 63 0 1.0 7.0 0.00 0.00 0.00 30 1015.2
20260503192538 63 152 2.0 7.0 0.00 0.00 0.00 30 1015.3
20260503192039 62 254 2.0 7.0 0.00 0.00 0.00 30 1015.4
20260503191608 62 254 2.0 7.0 0.00 0.00 0.00 30 1015.5
20260503191038 63 206 1.0 6.0 0.00 0.00 0.00 34 1015.4
20260503190536 63 288 1.0 6.0 0.00 0.00 0.00 33 1015.4
20260503190051 63 0 2.0 6.0 0.00 0.00 0.00 31 1015.6
20260503185542 63 261 0.0 6.0 0.00 0.00 0.00 33 1015.6
20260503185038 63 289 1.0 6.0 0.00 0.00 0.00 36 1015.8
20260503184556 63 344 1.0 4.0 0.00 0.00 0.00 34 1015.7
20260503184041 62 355 1.0 4.0 0.00 0.00 0.00 33 1015.8
20260503183538 62 275 1.0 4.0 0.00 0.00 0.00 31 1016.0
20260503183114 62 317 1.0 4.0 0.00 0.00 0.00 34 1016.0
20260503182536 62 360 1.0 4.0 0.00 0.00 0.00 31 1016.0
20260503182036 62 5 1.0 4.0 0.00 0.00 0.00 36 1016.0
20260503181551 62 293 2.0 4.0 0.00 0.00 0.00 30 1016.0
20260503181038 62 295 2.0 6.0 0.00 0.00 0.00 31 1016.1
20260503180542 61 0 2.0 8.0 0.00 0.00 0.00 34 1016.1
20260503180052 61 273 3.0 8.0 0.00 0.00 0.00 30 1016.2
20260503175537 61 0 0.0 7.0 0.00 0.00 0.00 31 1016.1
20260503175041 61 278 2.0 7.0 0.00 0.00 0.00 32 1016.2
20260503174549 61 339 1.0 9.0 0.00 0.00 0.00 33 1016.2
20260503174038 61 272 2.0 9.0 0.00 0.00 0.00 33 1016.1
20260503173537 60 207 2.0 7.0 0.00 0.00 0.00 33 1016.2
20260503173113 60 232 2.0 9.0 0.00 0.00 0.00 31 1016.4
20260503172537 60 226 1.0 9.0 0.00 0.00 0.00 35 1016.4
20260503172044 60 292 1.0 4.0 0.00 0.00 0.00 33 1016.4
20260503171550 60 297 1.0 8.0 0.00 0.00 0.00 35 1016.5
20260503171038 60 350 1.0 8.0 0.00 0.00 0.00 40 1016.5
20260503170537 60 209 2.0 7.0 0.00 0.00 0.00 33 1016.5
20260503150534 54 349 2.0 5.0 0.00 0.00 0.00 42 1017.3
20260503131033 50 290 2.0 10.0 0.00 0.00 0.00 52 1017.5
20260503130536 50 341 2.0 10.0 0.00 0.00 0.00 57 1017.6
20260503110534 43 0 0.0 0.0 0.00 0.00 0.00 71 1016.5
20260503081551 44 0 0.0 0.0 0.00 0.00 0.00 63 1014.8
20260503081035 44 0 0.0 0.0 0.00 0.00 0.00 63 1014.7
20260503080540 45 0 0.0 0.0 0.00 0.00 0.00 63 1014.6
20260503072538 46 0 0.0 0.0 0.00 0.00 0.00 58 1014.5
20260503072036 47 0 0.0 0.0 0.00 0.00 0.00 57 1014.4
20260503071550 47 0 0.0 0.0 0.00 0.00 0.00 57 1014.2
20260503071039 47 0 0.0 0.0 0.00 0.00 0.00 57 1014.2
20260503070538 47 0 0.0 2.0 0.00 0.00 0.00 56 1014.1
20260503055037 49 0 0.0 2.0 0.00 0.00 0.00 55 1013.7
20260503054550 49 0 0.0 1.0 0.00 0.00 0.00 54 1013.7
20260503054036 49 0 0.0 1.0 0.00 0.00 0.00 55 1013.7
20260503053538 50 0 0.0 1.0 0.00 0.00 0.00 55 1013.7
20260503053052 50 0 0.0 0.0 0.00 0.00 0.00 54 1013.7
20260503052535 50 0 0.0 0.0 0.00 0.00 0.00 53 1013.7
20260503052036 50 0 0.0 3.0 0.00 0.00 0.00 56 1013.8
20260503051550 51 0 0.0 3.0 0.00 0.00 0.00 55 1013.7
20260503051034 51 311 1.0 4.0 0.00 0.00 0.00 53 1013.7
20260503050537 51 351 1.0 5.0 0.00 0.00 0.00 52 1013.7